#timestamp,LO_Frequency,Hit,StdDev 
1505944815.8,286047001.3,N
1505944835.6,286047004.4,N
1505944855.5,286047005.3,N
1505944875.3,286047007.5,N
1505944895.1,286047007.1,N
1505944915.8,286047006.1,N
1505944935.7,286047007.6,N
1505944955.5,286047005.9,N
1505944975.3,286047004.6,N
1505944995.2,286047005.8,N
1505945015.0,286047005.8,N
1505945015.9,286047005.8,N
1505945035.7,286047005.2,N
1505945055.6,286047006.4,N
1505945075.4,286047006.2,N
1505945095.2,286047008.8,Y
1505945115.1,286047003.6,P
1505945116.0,286047003.6,P
1505945135.8,286047005.7,P
1505945155.7,286047005.1,Y
1505945175.5,286047001.2,P
1505945195.3,286047000.7,N
1505945215.1,286047001.7,N
1505945235.9,286046998.8,N
1505945255.7,286046996.6,N
1505945275.5,286046996.8,N
1505945295.4,286046996.5,N
1505945315.2,286046998.6,N
1505945335.0,286047003.1,N
1505945335.9,286047003.1,N
1505945355.8,286047003.9,N
1505945375.6,286047002.6,N
1505945395.4,286046999.4,N
1505945415.3,286047000.1,N
1505945435.1,286047001.2,N
1505945436.0,286047001.2,N
1505945455.8,286046997.7,N
1505945475.6,286046997.6,N
1505945495.5,286046998.2,N
1505945515.3,286047000.7,N
1505945535.1,286046997.0,N
1505945555.9,286046998.4,N
1505945575.7,286046999.0,N
1505945595.5,286046998.4,N
1505945615.4,286046996.5,N
1505945635.2,286047003.5,N
1505945655.0,286047003.7,N
1505945655.9,286047003.7,N
1505945675.8,286047002.2,N
1505945695.6,286047000.7,N
1505945715.4,286046996.9,N
1505945735.2,286046999.0,N
1505945755.1,286047000.3,N
1505945756.0,286047000.3,N
1505945775.8,286046998.3,N
1505945795.6,286046998.9,N
1505945815.5,286046997.4,N
1505945835.3,286046993.5,N
1505945855.1,286046993.4,N
1505945875.9,286046996.1,N
1505945895.7,286046997.9,N
1505945915.5,286046995.0,N
1505945935.4,286046994.2,N
1505945955.2,286046995.5,N
1505945975.0,286046995.0,N
1505945975.9,286046995.0,N
1505945995.8,286046997.7,N
1505946015.6,286046996.9,N
1505946035.4,286046997.0,N
1505946055.3,286046996.3,N
1505946075.1,286046993.9,N
1505946076.0,286046993.9,N
1505946095.8,286046995.6,N
1505946115.6,286046995.6,N
1505946135.5,286046995.9,N
1505946155.3,286046996.3,N
1505946175.1,286046994.3,N
1505946195.9,286046990.1,Y
1505946215.7,286046993.5,P
1505946235.5,286046991.8,P
1505946255.4,286046993.9,N
1505946275.2,286046997.9,N
1505946295.0,286046994.0,N
1505946295.9,286046994.0,N
1505946315.8,286046994.2,Y
1505946335.6,286046996.9,P
1505946355.4,286046996.8,N
1505946375.3,286046996.1,P
1505946395.1,286046993.3,Y
1505946415.8,286046996.8,P
1505946435.7,286046997.2,P
1505946455.5,286046999.4,N
1505946475.3,286046997.3,N
1505946495.2,286046995.0,Y
1505946515.0,286046996.6,P
1505946515.9,286046996.6,P
1505946535.7,286046999.9,N
1505946555.6,286046998.5,N
1505946575.4,286047002.4,N
1505946595.2,286047004.4,N
1505946615.1,286047003.8,N
1505946616.0,286047003.8,N
1505946635.8,286047007.5,N
1505946655.6,286047006.5,N
1505946675.5,286047007.9,N
1505946695.3,286047009.5,N
1505946715.1,286047009.9,N
1505946735.9,286047010.2,N
1505946755.7,286047009.6,N
1505946775.5,286047011.7,N
1505946795.3,286047011.3,N
1505946815.2,286047011.8,N
1505946835.0,286047011.5,N
1505946835.9,286047011.5,N
1505946855.7,286047013.2,N
1505946875.6,286047015.2,N
1505946895.4,286047014.1,N
1505946915.2,286047016.7,N
1505946935.1,286047014.5,N
1505946936.0,286047014.5,N
1505946955.8,286047014.2,N
1505946975.6,286047015.9,N
1505946995.5,286047015.4,N
1505947015.3,286047010.1,N
1505947035.1,286047013.2,N
1505947055.9,286047011.8,N
1505947075.7,286047012.5,N
1505947095.5,286047017.2,Y
1505947115.4,286047005.5,P
1505947135.2,286047007.1,N
1505947155.0,286047008.6,P
1505947155.9,286047008.6,Y
1505947175.8,286046996.8,P
1505947195.6,286046996.6,N
1505947215.4,286046997.9,N
1505947235.3,286046995.7,N
1505947255.1,286046997.6,N
1505947256.0,286046997.6,N
1505947275.8,286046994.9,N
1505947295.7,286046999.6,N
1505947315.5,286046998.5,N
1505947335.3,286047000.3,N
1505947355.1,286046996.8,N
1505947375.9,286046996.1,N
1505947395.0,286046991.9,N
1505947395.9,286046991.9,N
1505947415.8,286046994.8,N
1505947435.6,286046995.5,N
1505947455.4,286046994.1,N
1505947475.2,286046994.9,N
1505947495.1,286046997.6,N
1505947496.0,286046997.6,N
1505947515.8,286046994.9,N
1505947535.6,286046996.0,N
1505947555.5,286046993.6,N
1505947575.3,286046993.9,N
1505947595.1,286046992.6,N
1505947615.9,286046991.9,N
1505947635.7,286046994.9,N
1505947655.5,286046995.0,N
1505947675.4,286046992.1,N
1505947695.2,286046992.7,N
1505947715.0,286046993.0,Y
1505947715.9,286046993.0,P
1505947735.8,286046996.9,N
1505947755.6,286046996.5,N
1505947775.4,286047000.4,N
1505947795.3,286046999.8,N
1505947815.1,286047000.6,N
1505947816.0,286047000.6,N
1505947835.8,286046999.8,N
1505947855.7,286046999.8,N
1505947875.5,286047004.3,N
1505947895.3,286047002.9,N
1505947915.1,286047003.3,N
1505947935.9,286047005.5,N
1505947955.7,286047004.2,N
1505947975.5,286047003.3,N
1505947995.4,286047003.8,N
1505948015.2,286047003.5,N
1505948035.0,286047005.3,N
1505948035.9,286047005.3,N
1505948055.8,286047005.0,N
1505948075.6,286047009.1,N
1505948095.4,286047007.5,N
1505948115.3,286047007.0,N
1505948135.1,286047006.6,N
1505948136.0,286047006.6,N
1505948155.8,286047006.8,N
1505948175.7,286047003.6,N
1505948195.5,286047005.5,N
1505948215.3,286047004.8,N
1505948235.2,286047001.7,N
1505948255.9,286046999.8,N
1505948275.7,286047004.1,N
1505948295.5,286047000.9,N
1505948315.4,286047002.3,N
1505948335.2,286047001.0,N
1505948355.0,286046998.7,N
1505948355.9,286046998.7,N
1505948375.8,286046998.4,N
1505948395.6,286047001.1,N
